Temp
83 83 83 82 81 79 79 79 80 77 77 80 78 77 77 76 75 75 74 75 74 74 75 73 73 73 71 70 70 69 68 67 66 67 69 70 68 70 71 67 71 66 68
84 83 82 81 81 80 80 80 80 78 76 77 78 78 79 78 76 76 75 78 74 74 74 73 72 75 71 70 69 68 67 68 66 65 67 67 68 67 66 66 70 73 66
85 84 83 83 82 81 81 80 80 79 79 79 80 79 78 77 76 76 76 75 74 75 74 73 72 71 70 69 69 68 67 70 66 66 65 67 66 68 65 66 65 66 71
86 86 84 84 83 84 82 82 82 81 79 77 79 78 78 77 77 77 77 76 75 75 74 75 74 73 71 70 69 68 67 66 66 64 64 65 69 66 67 65 63 64 65
86 83 80 76 79 82 81 82 83 79 82 81 79 79 79 79 81 78 78 77 76 76 74 77 75 76 75 73 73 68 66 65 63 63 62 63 63 65 67 63 63 63 62
75 72 72 73 72 70 75 77 77 77 77 79 77 79 79 82 77 75 79 79 77 77 75 74 78 75 75 73 73 72 70 66 64 64 62 62 66 67 67 66 62 60 59
70 70 70 72 75 73 71 71 71 72 73 74 76 77 78 80 73 73 74 81 80 78 78 77 75 79 74 75 72 71 71 70 70 67 65 66 65 71 70 67 66 63 62
69 68 67 68 68 69 69 68 69 70 71 70 71 70 71 78 72 71 72 77 80 79 78 79 78 77 73 73 69 68 68 66 68 71 68 68 67 68 73 73 71 64 63
70 68 68 68 68 68 67 65 65 67 68 69 70 68 71 78 69 67 69 71 73 76 76 77 78 77 70 68 67 65 64 65 67 67 67 68 70 70 72 68 63 62 57
68 68 69 69 69 70 70 69 69 69 71 72 73 75 75 78 70 67 67 74 73 73 74 75 70 74 65 64 68 65 63 64 66 69 66 67 68 70 69 74 66 64 59
76 74 73 72 72 72 72 72 72 72 73 73 74 76 76 75 75 64 64 72 74 73 72 72 74 66 61 62 65 66 65 65 66 66 68 68 67 69 69 65 71 69 63
66 69 73 74 75 76 73 72 72 71 71 70 71 71 73 75 67 64 61 62 68 72 72 71 68 61 59 60 62 63 63 64 67 66 65 66 66 67 69 67 68 64 66
65 64 64 74 75 74 72 71 70 70 68 68 68 67 69 71 72 65 62 60 60 63 72 69 63 57 57 58 60 61 61 63 66 66 65 65 66 69 67 65 65 66 67
62 64 70 76 73 74 73 71 70 69 68 68 67 67 67 68 69 69 66 63 60 63 65 64 62 61 61 62 61 61 62 64 65 66 66 66 63 64 65 65 64 62 63
64 66 69 70 73 72 72 72 71 72 73 71 71 70 68 66 69 65 64 66 66 63 62 62 62 61 61 61 61 61 61 62 63 65 66 65 66 66 66 66 66 62 61
63 66 66 68 69 68 68 68 63 62 62 57 56 63 69 66 55 54 52 52 53 54 61 61 61 61 61 61 60 61 62 61 62 62 66 66 65 66 65 67 68 66 64
67 71 70 67 66 66 66 65 65 68 61 55 48 49 49 57 51 50 48 48 49 54 62 62 61 61 61 61 61 61 60 61 62 62 63 64 61 60 65 65 66 65 60
70 67 70 66 65 64 65 65 65 64 63 65 59 51 50 48 48 48 45 50 54 54 63 62 62 62 62 62 61 61 62 61 62 62 63 60 58 59 57 60 62 61 58
59 62 67 63 63 63 64 64 64 63 62 63 65 56 50 45 45 44 47 60 61 59 62 63 64 63 63 62 61 61 62 62 63 63 63 63 62 62 62 60 61 56 57
59 61 59 61 62 63 63 63 62 62 62 62 63 65 57 55 58 55 53 57 61 62 61 62 64 63 65 64 63 62 61 61 62 62 62 62 62 63 63 63 59 59 59
57 59 60 59 59 60 62 62 62 61 62 62 63 65 56 60 61 60 59 57 59 61 61 61 62 63 62 62 64 63 62 62 60 60 61 61 63 63 61 60 59 60 61
58 59 59 61 65 64 62 63 62 62 63 63 63 64 51 60 65 64 63 59 59 60 62 62 61 62 63 62 63 64 64 63 61 61 61 62 61 62 60 60 60 59 57
55 57 63 64 64 63 62 62 62 62 64 64 63 66 59 60 63 63 62 62 60 60 61 61 61 61 62 63 63 63 65 64 63 63 61 59 58 58 58 57 57 56 55
57 57 59 61 60 64 63 61 62 59 62 63 62 63 64 62 62 63 64 65 63 61 62 62 62 61 62 62 62 62 63 65 64 61 61 59 58 55 57 57 57 57 55
59 59 60 62 63 63 62 60 61 62 66 63 62 62 61 61 61 62 63 63 63 62 61 62 62 62 62 62 63 62 57 48 59 55 61 60 58 57 58 57 56 56 56
58 58 60 62 59 58 58 57 58 58 59 62 62 59 60 60 61 61 61 61 61 63 64 63 63 62 62 63 63 56 43 41 51 47 61 60 58 58 57 58 57 57 57
MSLP
1008.83 1009.30 1010.07 1010.48 1011.03 1011.63 1012.02 1012.15 1012.09 1012.35 1012.96 1013.34 1013.74 1014.03 1014.50 1015.19 1015.60 1015.88 1016.18 1016.38 1016.60 1016.67 1016.70 1016.83 1016.98 1017.09 1017.40 1017.53 1017.40 1017.66 1018.28 1018.78 1019.23 1019.14 1019.14 1019.79 1020.51 1020.88 1021.12 1021.61 1021.82 1022.15 1022.46
1007.83 1008.44 1009.25 1009.92 1010.47 1010.98 1011.39 1011.71 1011.91 1012.04 1012.47 1012.70 1013.18 1013.64 1013.95 1014.45 1014.85 1015.26 1015.60 1015.73 1016.04 1016.12 1016.22 1016.51 1016.66 1016.79 1017.09 1017.42 1017.49 1017.71 1017.94 1018.12 1018.41 1018.96 1019.27 1019.75 1020.15 1020.63 1021.22 1021.66 1021.77 1021.87 1022.21
1007.07 1007.72 1008.42 1009.01 1009.72 1010.24 1010.67 1011.06 1011.34 1011.52 1011.99 1012.68 1012.90 1013.11 1013.43 1013.76 1014.11 1014.32 1014.73 1015.12 1015.45 1015.48 1015.62 1015.94 1016.16 1016.40 1016.73 1017.02 1017.37 1017.65 1017.84 1017.96 1018.25 1018.63 1019.12 1019.31 1019.71 1020.21 1021.06 1021.39 1021.85 1021.97 1022.06
1006.58 1007.08 1007.58 1008.18 1008.60 1009.21 1009.83 1010.34 1010.63 1010.80 1011.19 1011.60 1012.09 1012.55 1012.84 1013.05 1013.33 1013.62 1013.91 1014.32 1014.70 1014.98 1015.08 1015.18 1015.58 1015.89 1016.05 1016.47 1017.00 1017.30 1017.59 1017.98 1018.42 1018.87 1019.17 1019.57 1019.85 1020.31 1020.47 1020.84 1021.41 1021.60 1022.05
1006.29 1006.51 1007.20 1007.82 1008.09 1008.08 1008.44 1009.22 1009.54 1009.99 1010.26 1010.71 1011.33 1011.71 1012.11 1012.50 1012.64 1012.73 1013.00 1013.30 1013.67 1014.11 1014.46 1014.62 1014.81 1015.17 1015.36 1015.62 1016.35 1017.01 1017.43 1017.61 1017.93 1018.60 1019.25 1019.35 1019.74 1020.24 1020.56 1020.67 1020.80 1020.94 1021.45
1006.18 1006.74 1006.80 1007.20 1007.70 1008.86 1008.83 1008.57 1008.99 1009.55 1009.99 1010.32 1010.65 1010.90 1011.18 1011.39 1011.55 1011.78 1012.14 1012.48 1012.87 1013.22 1013.65 1013.88 1014.07 1014.37 1014.66 1015.08 1015.60 1016.13 1016.54 1017.07 1017.46 1017.97 1018.59 1019.03 1018.91 1019.09 1019.55 1020.03 1020.26 1020.71 1021.19
1006.03 1006.35 1006.19 1006.41 1006.76 1006.56 1008.28 1009.46 1009.06 1009.48 1009.71 1010.01 1010.43 1010.39 1010.56 1010.56 1010.44 1010.73 1011.11 1011.49 1011.83 1012.16 1012.53 1012.88 1013.24 1013.54 1014.05 1014.51 1014.88 1015.31 1015.88 1016.30 1016.45 1016.95 1017.54 1017.72 1017.97 1017.89 1018.42 1018.88 1019.26 1019.31 1019.50
1006.89 1007.35 1007.61 1007.83 1008.06 1008.34 1008.58 1009.43 1009.44 1009.10 1009.17 1009.62 1009.20 1009.94 1010.11 1010.04 1009.74 1009.96 1010.47 1010.47 1010.83 1010.99 1011.21 1011.61 1012.00 1012.54 1013.10 1013.77 1014.32 1014.88 1015.11 1015.65 1015.87 1016.14 1016.15 1016.70 1016.99 1017.22 1017.17 1017.22 1017.69 1018.47 1018.70
1006.99 1006.78 1007.43 1008.16 1008.83 1008.79 1009.11 1009.26 1008.80 1008.86 1008.87 1008.64 1007.93 1010.18 1011.47 1008.33 1009.09 1009.16 1009.66 1010.06 1010.12 1009.97 1010.31 1010.56 1011.03 1011.57 1011.95 1012.66 1013.53 1014.37 1014.88 1014.97 1015.18 1015.48 1015.81 1015.79 1016.01 1016.29 1016.59 1017.30 1017.79 1018.51 1019.13
1007.33 1007.55 1007.14 1007.34 1007.75 1007.79 1008.10 1008.30 1008.53 1008.57 1008.39 1008.38 1008.51 1008.40 1008.20 1008.20 1008.09 1008.60 1008.81 1009.30 1009.41 1009.61 1009.55 1009.68 1010.08 1010.66 1011.06 1011.87 1012.55 1013.41 1014.04 1014.45 1014.85 1015.08 1015.30 1015.54 1015.67 1015.88 1016.06 1016.09 1016.86 1017.62 1018.39
1007.59 1007.44 1007.56 1007.24 1006.79 1007.44 1007.86 1007.67 1008.03 1008.03 1007.89 1007.67 1007.79 1007.54 1007.23 1007.40 1007.46 1007.50 1008.08 1008.53 1008.59 1008.64 1008.70 1009.20 1009.27 1008.95 1009.86 1010.94 1011.50 1012.22 1012.69 1013.60 1014.21 1014.53 1014.80 1015.11 1015.29 1015.51 1015.68 1015.85 1015.63 1016.15 1017.09
1008.61 1008.54 1008.01 1007.74 1007.12 1006.85 1006.98 1007.02 1007.03 1007.23 1007.56 1007.68 1007.63 1007.36 1006.96 1006.72 1006.88 1007.31 1007.48 1007.91 1007.83 1008.08 1008.07 1008.28 1008.71 1009.34 1010.12 1010.53 1011.01 1011.67 1012.21 1013.34 1013.80 1014.23 1014.60 1014.77 1014.86 1015.01 1015.25 1015.50 1015.57 1015.96 1016.18
1007.62 1007.81 1008.10 1008.31 1007.20 1006.64 1006.40 1006.88 1007.01 1007.15 1007.25 1007.31 1007.43 1007.29 1006.83 1006.70 1006.89 1006.99 1007.36 1007.40 1007.78 1008.06 1007.64 1007.62 1008.07 1008.83 1009.58 1010.44 1011.22 1011.72 1012.14 1012.84 1013.24 1013.80 1013.98 1014.07 1014.10 1014.36 1014.96 1015.40 1015.62 1015.91 1016.16
1007.24 1006.98 1006.73 1007.13 1006.57 1005.92 1006.15 1006.02 1006.63 1006.76 1006.76 1006.74 1006.98 1006.98 1006.43 1006.31 1006.35 1006.57 1006.90 1006.97 1007.34 1007.43 1007.53 1007.65 1008.25 1008.92 1009.38 1010.04 1010.96 1011.77 1012.07 1012.37 1012.62 1012.67 1013.00 1013.33 1013.76 1014.20 1014.65 1014.83 1015.54 1016.05 1016.37
1007.73 1007.23 1006.94 1007.03 1006.03 1005.63 1005.54 1005.74 1006.20 1005.94 1005.62 1005.58 1005.91 1005.74 1005.90 1005.87 1005.62 1005.67 1006.08 1006.45 1006.42 1006.96 1007.64 1007.95 1008.70 1009.18 1009.62 1010.02 1010.55 1010.89 1011.41 1011.80 1012.10 1012.26 1012.35 1012.83 1013.31 1013.72 1014.12 1014.38 1014.88 1015.65 1016.15
1006.31 1006.28 1005.88 1005.55 1005.28 1005.24 1005.22 1005.54 1005.36 1005.09 1004.82 1004.59 1004.64 1005.01 1005.00 1004.63 1004.79 1005.15 1005.47 1005.86 1006.26 1006.59 1007.60 1007.88 1008.34 1008.83 1009.12 1009.47 1009.80 1010.23 1010.55 1010.77 1011.28 1011.73 1011.87 1012.29 1012.59 1013.03 1013.38 1013.82 1014.12 1014.87 1015.46
1005.08 1004.78 1004.66 1004.41 1004.50 1004.60 1004.75 1005.17 1005.20 1004.53 1004.16 1003.93 1004.01 1004.16 1005.01 1004.33 1004.60 1004.82 1005.06 1005.66 1006.22 1006.63 1007.00 1007.53 1007.75 1008.22 1008.55 1008.85 1009.15 1009.43 1009.71 1009.89 1010.43 1010.92 1011.47 1011.61 1011.89 1012.51 1012.69 1013.17 1013.77 1014.46 1015.15
1004.16 1003.22 1002.93 1003.04 1003.29 1003.72 1004.05 1004.28 1004.48 1004.53 1004.48 1004.29 1003.86 1004.52 1004.29 1004.79 1004.81 1004.81 1005.30 1005.93 1006.71 1006.28 1006.39 1006.69 1007.10 1007.35 1007.52 1007.77 1008.26 1008.44 1008.54 1009.16 1009.57 1010.22 1010.59 1011.04 1011.37 1011.60 1012.15 1012.53 1012.97 1013.98 1014.37
1005.56 1004.87 1002.21 1001.09 1001.57 1003.00 1003.55 1003.72 1003.71 1003.93 1004.02 1004.01 1003.88 1004.17 1004.21 1004.52 1004.93 1005.02 1005.25 1005.29 1005.74 1005.88 1005.67 1005.98 1006.28 1006.50 1006.65 1006.95 1007.18 1007.53 1007.75 1008.09 1008.53 1009.13 1009.64 1010.24 1010.66 1010.80 1011.39 1012.06 1012.47 1013.07 1013.54
1004.60 1003.76 1003.29 1002.79 1001.27 1002.42 1002.69 1003.10 1003.10 1003.45 1003.79 1003.82 1003.82 1003.66 1003.86 1004.51 1004.61 1004.81 1004.78 1004.78 1004.99 1004.93 1005.04 1005.17 1005.14 1005.28 1005.50 1005.74 1006.09 1006.44 1006.85 1007.31 1007.73 1008.12 1008.57 1009.07 1009.59 1009.98 1010.51 1011.24 1011.98 1012.67 1013.03
1003.14 1002.98 1003.44 1002.95 1002.83 1002.67 1002.72 1002.85 1002.81 1003.19 1003.52 1003.52 1003.04 1002.75 1002.85 1003.30 1003.31 1003.33 1003.55 1003.93 1004.00 1003.77 1003.77 1004.17 1004.18 1004.15 1004.43 1004.67 1004.91 1005.40 1005.74 1006.11 1006.67 1007.33 1007.82 1008.30 1008.75 1009.07 1009.71 1010.53 1011.30 1011.83 1012.61
1003.00 1002.41 1003.03 1003.89 1002.74 1002.41 1002.45 1002.36 1002.32 1002.45 1002.75 1002.74 1002.37 1002.11 1002.40 1002.56 1002.38 1002.07 1002.14 1002.36 1002.65 1002.75 1002.87 1003.23 1003.54 1003.51 1003.53 1003.64 1003.85 1004.04 1004.42 1004.88 1005.52 1006.14 1006.83 1007.54 1007.95 1008.28 1008.95 1009.81 1010.62 1011.29 1012.09
1003.51 1003.47 1002.90 1002.24 1002.10 1002.01 1001.92 1001.86 1002.04 1001.99 1002.20 1002.05 1001.72 1001.69 1001.77 1001.88 1001.40 1001.00 1000.86 1000.92 1001.39 1001.54 1001.85 1002.11 1002.39 1002.65 1002.73 1002.85 1002.97 1003.15 1003.23 1003.61 1004.16 1005.03 1005.88 1006.67 1007.36 1007.60 1008.29 1009.06 1009.92 1010.81 1011.05
1003.00 1002.97 1002.78 1002.27 1001.83 1001.70 1001.58 1001.70 1001.49 1001.49 1001.51 1001.22 1001.12 1001.12 1001.16 1000.94 1000.62 1000.20 999.73 999.87 1000.15 1000.56 1000.84 1001.32 1001.52 1001.77 1001.92 1002.05 1002.18 1002.30 1002.66 1002.87 1003.26 1004.12 1004.77 1005.47 1006.20 1006.98 1007.68 1008.43 1009.05 1009.58 1010.10
1002.61 1002.23 1001.84 1001.59 1001.33 1001.03 1001.06 1001.12 1001.11 1001.00 1000.72 1000.53 1000.83 1000.73 1000.66 1000.44 1000.18 999.88 999.50 999.14 999.27 999.45 1000.07 1000.51 1000.85 1001.11 1001.21 1001.13 1001.31 1001.45 1001.60 1002.21 1002.66 1003.09 1003.84 1004.58 1005.39 1006.14 1006.64 1007.42 1008.12 1008.77 1009.48
1001.99 1001.56 1001.11 1000.69 1000.46 1000.46 1000.57 1000.65 1000.65 1000.72 1000.78 1000.66 1000.46 1000.31 1000.22 1000.05 999.87 999.61 999.43 999.36 999.13 999.00 999.14 999.24 999.73 999.81 1000.20 1000.48 1000.52 1000.56 1000.93 1001.45 1001.95 1002.31 1002.87 1003.74 1004.49 1005.24 1005.86 1006.40 1007.16 1007.70 1008.22
Wind_Speed
15 14 12 10 10 8 7 7 7 5 10 12 11 11 10 9 7 7 7 7 7 7 6 6 7 4 2 1 1 2 2 4 4 2 3 5 4 8 7 5 8 6 7
16 14 14 9 7 8 9 8 6 6 9 11 10 10 11 10 9 10 10 8 8 9 8 7 7 5 5 4 2 4 3 3 4 6 3 4 5 4 6 8 7 6 5
16 15 13 13 12 11 11 9 7 7 8 10 11 12 11 11 10 9 9 8 7 8 8 8 8 7 6 4 4 4 3 2 3 4 4 2 2 6 5 4 5 3 6
15 16 14 14 13 11 11 13 11 10 9 9 11 10 9 9 10 9 10 10 8 7 8 9 8 10 8 8 6 6 4 4 3 3 3 3 5 3 5 5 4 2 4
15 12 9 10 4 8 11 13 14 11 12 11 11 11 11 10 10 12 11 12 12 11 8 10 9 12 13 12 7 6 6 4 3 4 3 3 4 5 8 3 4 4 3
13 12 12 9 9 1 5 3 6 7 7 9 8 11 12 11 15 17 14 12 11 12 11 9 11 15 15 16 14 12 10 7 5 5 4 4 7 7 7 6 5 4 4
11 7 6 3 7 7 8 0 7 5 5 4 3 8 11 13 16 18 19 13 13 13 14 12 10 10 13 13 15 15 12 9 6 7 6 6 7 12 11 10 8 5 5
2 3 3 1 3 5 7 7 6 6 6 5 3 10 20 15 14 17 16 15 12 14 14 16 15 13 13 14 12 10 8 7 6 5 7 7 6 6 14 14 13 6 2
3 4 6 9 9 8 7 9 6 4 3 5 3 15 13 24 15 15 13 8 11 13 11 14 16 14 16 19 14 12 8 7 8 11 9 9 10 9 13 6 5 5 2
4 7 6 7 5 7 7 7 5 5 6 6 10 12 16 14 11 15 13 8 10 8 9 12 16 16 13 16 15 14 13 10 9 8 5 5 7 5 13 13 8 8 4
3 2 5 6 7 7 7 6 7 6 4 4 6 7 7 8 7 11 14 8 8 9 8 8 9 19 22 24 20 14 14 9 10 6 5 6 5 7 6 5 10 9 5
12 12 5 6 5 4 5 3 2 3 4 5 5 5 5 5 8 5 10 13 7 6 6 7 6 12 11 16 17 10 10 7 5 6 6 7 8 7 6 5 6 4 4
8 1 9 15 7 6 4 5 3 4 4 5 5 5 4 3 3 7 7 6 8 6 5 9 12 16 15 11 7 8 9 6 6 8 9 8 7 6 5 4 4 4 5
6 11 17 15 8 6 5 4 5 5 5 5 5 6 5 4 4 4 4 3 5 3 2 4 8 12 13 11 10 8 7 7 8 8 8 5 5 4 5 4 4 4 3
14 14 15 13 7 6 6 6 7 7 8 6 8 7 6 5 6 10 8 4 4 6 5 4 3 4 6 7 7 8 7 7 9 7 7 7 8 8 7 6 5 4 4
12 11 7 7 5 5 5 6 9 13 13 11 12 8 5 6 12 12 12 11 9 15 4 3 5 6 7 8 7 7 8 11 8 6 8 9 9 8 8 7 8 8 8
16 15 10 8 5 5 4 5 5 7 7 6 8 8 11 8 12 11 10 8 12 11 3 5 7 8 8 8 9 9 9 9 9 8 9 9 6 7 9 8 8 8 4
12 15 10 7 6 5 5 5 4 3 3 5 5 8 10 10 10 8 10 10 3 4 6 6 8 9 9 10 9 9 8 9 10 10 9 8 7 6 4 6 8 7 5
10 13 11 7 7 6 4 4 3 4 4 5 4 2 3 6 5 7 12 4 6 7 9 8 8 9 9 9 9 9 10 10 11 11 11 10 9 8 8 6 7 10 8
3 14 14 15 3 4 3 4 3 3 4 5 5 5 4 4 5 5 4 5 7 7 8 10 9 9 9 10 9 9 10 10 12 12 12 12 11 11 11 10 6 7 7
4 4 7 13 6 5 5 4 4 4 5 5 5 5 11 7 7 6 8 8 9 8 8 9 9 8 8 8 10 11 11 11 11 12 11 12 12 13 10 9 7 7 8
2 2 1 8 5 3 3 4 4 4 6 6 5 4 11 6 6 7 8 9 9 8 7 8 8 9 9 10 11 11 12 12 12 13 12 12 12 12 11 10 9 9 7
3 7 11 5 4 5 4 4 5 5 6 6 5 6 4 7 8 7 7 8 8 8 8 8 8 8 8 8 10 10 12 13 13 13 13 11 10 11 11 11 10 8 8
3 5 8 8 6 7 6 5 5 7 7 5 4 4 6 5 7 10 9 7 8 8 7 7 7 10 9 9 8 9 10 11 10 11 15 13 12 11 10 12 12 14 10
6 7 9 11 7 4 3 4 4 6 6 3 4 4 4 4 6 5 7 6 6 6 8 8 7 10 14 15 13 14 14 15 13 12 12 15 16 18 16 12 11 10 9
7 8 9 8 5 3 4 4 4 4 5 5 5 4 4 5 6 4 7 6 4 7 10 8 10 14 13 13 16 17 15 17 16 18 14 14 14 13 12 14 16 10 11
Wind_Direction
181 188 201 195 191 188 207 215 215 174 173 181 182 183 180 194 197 184 193 209 202 207 218 205 203 186 209 291 247 144 168 150 151 308 105 145 126 155 165 138 160 152 170
185 177 187 186 185 188 207 220 214 195 172 176 183 188 188 192 190 190 198 207 198 201 203 187 193 187 203 196 212 232 199 177 138 149 127 140 153 159 143 160 176 176 167
177 179 180 187 185 193 193 205 210 188 175 187 187 190 188 188 190 194 194 207 212 203 197 194 197 183 196 204 214 223 197 142 121 145 150 136 129 156 149 169 189 177 185
183 183 183 181 184 192 189 196 203 196 184 176 188 193 194 188 192 193 198 203 207 212 205 204 197 196 188 192 208 209 191 171 147 139 151 142 163 182 164 156 172 145 172
192 165 135 84 85 201 185 195 200 187 196 193 187 191 197 197 203 203 196 200 205 210 204 211 204 203 196 189 184 204 190 191 168 165 160 158 153 162 182 200 189 152 176
136 138 135 126 74 233 360 89 181 188 177 192 193 200 200 207 209 205 207 212 210 211 216 211 212 204 199 188 184 184 187 182 187 167 172 175 196 178 179 189 176 161 180
141 157 115 128 172 180 115 304 127 141 123 94 255 221 220 219 213 211 205 211 210 210 215 216 209 207 199 195 195 188 199 201 165 165 186 192 182 192 187 190 199 178 196
117 129 98 147 172 158 150 182 195 181 164 179 164 4 322 262 219 221 222 221 217 217 210 211 211 209 191 192 187 198 188 194 196 189 189 194 193 192 199 194 193 180 109
227 200 181 186 195 184 193 208 221 187 172 223 164 187 238 258 228 220 220 216 221 224 215 211 211 209 195 184 183 195 206 196 197 225 230 198 210 213 192 157 162 141 143
207 242 191 185 196 177 188 196 204 208 206 186 211 230 232 242 223 225 219 220 227 225 227 222 212 207 198 185 184 188 203 206 198 208 213 221 214 233 187 193 171 171 149
234 200 228 216 196 208 207 186 193 190 199 217 230 246 239 230 234 217 211 215 220 228 227 230 234 203 172 183 188 192 202 185 200 198 206 213 197 208 204 195 183 168 163
14 354 304 247 218 201 199 232 203 204 232 239 236 265 267 240 231 209 208 214 220 220 226 214 183 181 187 186 184 186 158 181 179 195 221 212 211 203 201 195 167 155 172
136 228 313 283 252 236 195 218 233 224 234 250 235 232 229 166 166 163 234 236 244 242 244 204 181 177 165 162 171 175 157 166 180 207 211 210 203 189 149 151 129 157 150
214 212 232 253 237 219 227 203 220 228 235 234 235 234 238 229 219 199 219 183 189 186 224 152 171 172 165 171 180 188 199 202 207 212 204 191 151 151 178 154 152 161 140
224 229 228 235 233 231 228 221 226 233 214 219 232 214 208 233 227 188 182 201 184 167 115 99 129 156 172 173 181 184 194 198 207 199 180 172 178 179 184 179 173 151 162
207 229 225 231 232 225 220 255 249 237 253 247 244 217 249 230 165 183 192 208 159 144 120 155 172 185 187 181 186 186 189 191 197 185 190 186 182 186 183 187 187 191 194
205 207 204 199 209 216 209 205 250 285 277 262 265 270 243 208 185 181 188 200 158 148 162 194 191 190 197 192 194 192 195 194 190 193 195 191 173 177 183 188 191 191 190
248 215 200 191 187 205 217 221 203 196 272 294 287 231 242 205 211 177 136 117 104 240 192 196 205 207 206 199 201 204 192 187 195 197 194 186 182 162 160 181 172 185 175
312 318 260 181 161 194 207 202 209 228 253 268 282 279 133 90 124 137 160 166 193 197 211 206 210 211 206 203 203 202 199 196 195 196 196 194 190 183 188 177 176 169 144
275 301 343 295 136 180 194 217 242 250 252 255 266 263 134 157 183 182 186 200 218 212 209 215 211 211 211 204 202 200 198 198 200 199 198 195 194 195 202 199 182 179 182
179 109 26 311 276 227 219 213 222 235 250 254 254 251 196 190 209 190 195 205 214 210 205 217 218 212 207 204 200 195 197 197 194 197 201 202 199 201 197 193 174 173 193
332 62 168 266 255 235 238 230 233 236 247 248 265 266 200 220 227 212 206 199 202 208 213 219 223 218 214 202 203 200 201 199 195 196 201 202 202 199 191 187 183 188 183
332 316 287 261 263 264 271 256 246 244 255 256 257 275 237 219 228 225 210 197 193 199 207 208 210 217 217 214 210 210 205 204 200 195 197 195 193 189 188 184 174 188 179
266 276 287 280 271 259 241 235 238 238 232 239 260 269 272 248 238 234 227 207 191 203 198 211 212 219 218 219 211 208 215 215 199 196 186 186 186 180 184 190 189 196 187
260 252 244 254 251 227 253 264 270 253 255 255 269 262 272 312 311 281 250 209 190 175 195 202 216 224 221 219 216 206 205 193 195 183 184 185 185 185 191 194 189 189 186
293 274 269 267 254 247 256 262 269 287 276 260 258 271 289 306 284 13 347 312 224 192 194 194 207 209 216 227 224 215 197 192 188 179 182 184 188 193 196 197 191 190 196